Change the Weather History Date:

Sunday, April 21, 2013

  Actual Average Record
Temperature  
Mean Temperature 52 °F -  
Max Temperature 64 °F 77 °F 87 °F (2011)
Min Temperature 41 °F 53 °F 41 °F (2013)
Degree Days  
Heating Degree Days 12    
Growing Degree Days 2 (Base 50)    
Moisture  
Dew Point 47 °F    
Average Humidity 73    
Maximum Humidity 100    
Minimum Humidity 56    
Precipitation  
Precipitation 0.00 in - - ()
Sea Level Pressure  
Sea Level Pressure 30.33 in    
Wind  
Wind Speed 10 mph (NE)    
Max Wind Speed 24 mph    
Max Gust Speed 36 mph    
Visibility 10 miles    
Events      
Averages and records for this station are not official NWS values.
T = Trace of Precipitation, MM = Missing Value Source: NWS Daily Summary

Daily Weather History Graph

Daily Weather History Graph

Search for Another Location

Airport or City:

Trip Planner

Search our weather history database for the weather conditions in past years. The results will help you decide how hot, cold, wet, or windy it might be!

Date:

Astronomy

Apr. 21, 2013 Rise Set
Actual Time 6:39 AM EDT 7:52 PM EDT
Civil Twilight 6:13 AM EDT 8:18 PM EDT
Nautical Twilight 5:43 AM EDT 8:49 PM EDT
Astronomical Twilight 5:11 AM EDT 9:21 PM EDT
Moon 3:48 PM EDT (4/21) 3:47 AM EDT (4/21)
Length of Visible Light 14h 04m
Length of Day
13h 12m
Waxing Gibbous, 79% of the Moon is Illuminated
Apr 21
Waxing Gibbous
Apr 25
Full
May 2
Last Quarter
May 9
New
May 18
First Quarter

Hourly Weather History & Observations

Time (EDT) Temp. Windchill Dew Point Humidity Pressure Visibility Wind Dir Wind Speed Gust Speed Precip Events Conditions
12:15 AM 44.6 °F - 44.6 °F 100% 30.26 in 10.0 mi Calm Calm - N/A   Clear
12:35 AM 44.6 °F - 44.6 °F 100% 30.26 in 10.0 mi Calm Calm - N/A   Clear
12:55 AM 46.4 °F - 44.6 °F 93% 30.26 in 10.0 mi Calm Calm - N/A   Clear
1:15 AM 44.6 °F - 44.6 °F 100% 30.26 in 10.0 mi Calm Calm - N/A   Clear
1:35 AM 44.6 °F 43.1 °F 44.6 °F 100% 30.27 in 10.0 mi North 3.5 mph - N/A   Clear
1:55 AM 42.8 °F - 42.8 °F 100% 30.26 in 10.0 mi Calm Calm - N/A   Clear
2:15 AM 42.8 °F - 42.8 °F 100% 30.26 in 10.0 mi Calm Calm - N/A   Clear
2:35 AM 42.8 °F 41.1 °F 42.8 °F 100% 30.26 in 10.0 mi NNW 3.5 mph - N/A   Clear
5:35 AM 41.0 °F 38.0 °F 41.0 °F 100% 30.27 in 10.0 mi North 4.6 mph - N/A   Clear
5:55 AM 41.0 °F 37.1 °F 41.0 °F 100% 30.28 in 10.0 mi NNE 5.8 mph - N/A   Clear
6:15 AM 41.0 °F 37.1 °F 41.0 °F 100% 30.29 in 10.0 mi NNE 5.8 mph - N/A   Clear
6:35 AM 42.8 °F 39.3 °F 42.8 °F 100% 30.30 in 10.0 mi North 5.8 mph - N/A   Clear
6:55 AM 41.0 °F 38.0 °F 41.0 °F 100% 30.31 in 10.0 mi NNE 4.6 mph - N/A   Clear
7:15 AM 42.8 °F 38.6 °F 42.8 °F 100% 30.31 in 10.0 mi NNE 6.9 mph - N/A   Clear
8:35 AM 51.8 °F - 50.0 °F 94% 30.33 in 10.0 mi NNE 8.1 mph - N/A   Clear
8:55 AM 53.6 °F - 51.8 °F 94% 30.33 in 10.0 mi NNE 11.5 mph - N/A   Clear
9:15 AM 57.2 °F - 51.8 °F 82% 30.33 in 10.0 mi NE 10.4 mph - N/A   Clear
9:35 AM 59.0 °F - 51.8 °F 77% 30.34 in 10.0 mi NE 12.7 mph 17.3 mph N/A   Clear
9:55 AM 60.8 °F - 50.0 °F 68% 30.34 in 10.0 mi NE 18.4 mph 25.3 mph N/A   Clear
10:15 AM 60.8 °F - 51.8 °F 72% 30.34 in 10.0 mi NE 17.3 mph 23.0 mph N/A   Clear
10:35 AM 60.8 °F - 50.0 °F 68% 30.35 in 10.0 mi ENE 21.9 mph 28.8 mph N/A   Scattered Clouds
10:55 AM 62.6 °F - 50.0 °F 63% 30.36 in 10.0 mi NE 16.1 mph 25.3 mph N/A   Clear
11:15 AM 62.6 °F - 50.0 °F 63% 30.36 in 10.0 mi ENE 16.1 mph 28.8 mph N/A   Scattered Clouds
11:35 AM 62.6 °F - 50.0 °F 63% 30.37 in 10.0 mi ENE 18.4 mph 31.1 mph N/A   Scattered Clouds
11:55 AM 62.6 °F - 50.0 °F 63% 30.37 in 10.0 mi ENE 15.0 mph 27.6 mph N/A   Scattered Clouds
12:15 PM 62.6 °F - 50.0 °F 63% 30.37 in 10.0 mi NE 21.9 mph 32.2 mph N/A   Scattered Clouds
12:35 PM 62.6 °F - 50.0 °F 63% 30.37 in 10.0 mi ENE 20.7 mph 28.8 mph N/A   Scattered Clouds
12:55 PM 64.4 °F - 50.0 °F 59% 30.37 in 10.0 mi ENE 20.7 mph 34.5 mph N/A   Scattered Clouds
1:15 PM 64.4 °F - 50.0 °F 59% 30.37 in 10.0 mi ENE 20.7 mph 31.1 mph N/A   Scattered Clouds
1:35 PM 62.6 °F - 50.0 °F 63% 30.37 in 10.0 mi ENE 20.7 mph 31.1 mph N/A   Scattered Clouds
1:55 PM 62.6 °F - 50.0 °F 63% 30.36 in 10.0 mi ENE 21.9 mph 32.2 mph N/A   Scattered Clouds
2:15 PM 64.4 °F - 50.0 °F 59% 30.36 in 10.0 mi NE 24.2 mph 29.9 mph N/A   Scattered Clouds
2:35 PM 64.4 °F - 48.2 °F 56% 30.36 in 10.0 mi ENE 17.3 mph 28.8 mph N/A   Mostly Cloudy
2:55 PM 62.6 °F - 48.2 °F 59% 30.35 in 10.0 mi ENE 20.7 mph 29.9 mph N/A   Overcast
3:15 PM 62.6 °F - 48.2 °F 59% 30.35 in 10.0 mi ENE 15.0 mph 28.8 mph N/A   Overcast
3:35 PM 60.8 °F - 50.0 °F 68% 30.35 in 10.0 mi NE 21.9 mph 29.9 mph N/A   Overcast
3:55 PM 60.8 °F - 50.0 °F 68% 30.35 in 10.0 mi NE 24.2 mph 32.2 mph N/A   Overcast
4:15 PM 60.8 °F - 50.0 °F 68% 30.35 in 10.0 mi ENE 20.7 mph 29.9 mph N/A   Overcast
4:35 PM 62.6 °F - 50.0 °F 63% 30.34 in 10.0 mi NE 18.4 mph 32.2 mph N/A   Mostly Cloudy
4:55 PM 60.8 °F - 46.4 °F 59% 30.33 in 10.0 mi ENE 20.7 mph 34.5 mph N/A   Mostly Cloudy
5:15 PM 60.8 °F - 46.4 °F 59% 30.33 in 10.0 mi NE 20.7 mph 28.8 mph N/A   Overcast
5:35 PM 60.8 °F - 46.4 °F 59% 30.33 in 10.0 mi ENE 16.1 mph 31.1 mph N/A   Overcast
5:55 PM 59.0 °F - 46.4 °F 63% 30.33 in 10.0 mi ENE 18.4 mph 28.8 mph N/A   Overcast
6:15 PM 59.0 °F - 44.6 °F 59% 30.33 in 10.0 mi ENE 21.9 mph 34.5 mph N/A   Overcast
6:35 PM 59.0 °F - 44.6 °F 59% 30.32 in 10.0 mi ENE 16.1 mph 31.1 mph N/A   Overcast
6:55 PM 59.0 °F - 44.6 °F 59% 30.32 in 10.0 mi ENE 21.9 mph 35.7 mph N/A   Overcast
7:15 PM 59.0 °F - 44.6 °F 59% 30.33 in 10.0 mi ENE 17.3 mph 34.5 mph N/A   Overcast
7:35 PM 59.0 °F - 44.6 °F 59% 30.35 in 10.0 mi ENE 17.3 mph 28.8 mph N/A   Overcast
7:55 PM 59.0 °F - 46.4 °F 63% 30.35 in 10.0 mi ENE 18.4 mph 26.5 mph N/A   Overcast
8:15 PM 57.2 °F - 44.6 °F 63% 30.35 in 10.0 mi ENE 20.7 mph 31.1 mph N/A   Overcast
8:35 PM 57.2 °F - 46.4 °F 67% 30.36 in 10.0 mi ENE 13.8 mph 26.5 mph N/A   Overcast
8:55 PM 57.2 °F - 46.4 °F 67% 30.36 in 10.0 mi NE 16.1 mph 24.2 mph N/A   Overcast
9:15 PM 57.2 °F - 46.4 °F 67% 30.36 in 10.0 mi NE 19.6 mph 27.6 mph N/A   Overcast
9:35 PM 57.2 °F - 46.4 °F 67% 30.37 in 10.0 mi ENE 18.4 mph 26.5 mph N/A   Overcast
9:55 PM 57.2 °F - 44.6 °F 63% 30.38 in 10.0 mi ENE 17.3 mph 23.0 mph N/A   Overcast
10:15 PM 57.2 °F - 44.6 °F 63% 30.36 in 10.0 mi NE 17.3 mph 26.5 mph N/A   Overcast
10:35 PM 55.4 °F - 44.6 °F 67% 30.35 in 10.0 mi NE 20.7 mph 27.6 mph N/A   Mostly Cloudy
10:55 PM 55.4 °F - 44.6 °F 67% 30.36 in 10.0 mi NE 18.4 mph 25.3 mph N/A   Scattered Clouds
11:15 PM 55.4 °F - 44.6 °F 67% 30.37 in 10.0 mi NE 15.0 mph 21.9 mph N/A   Mostly Cloudy
11:35 PM 55.4 °F - 44.6 °F 67% 30.35 in 10.0 mi NE 18.4 mph 31.1 mph N/A   Overcast
11:55 PM 55.4 °F - 44.6 °F 67% 30.35 in 10.0 mi NE 16.1 mph 27.6 mph N/A   Overcast